Wetbulb
40.80 41.62 40.47 41.09 41.57 42.44 40.71 40.81 37.13 40.46 37.80 38.02 40.06 39.58 39.04 38.42 37.35 36.24 35.91 36.02 35.19 34.58 35.87 36.95 36.92 37.17 37.69 38.20 38.55 38.80 38.29 37.84 37.86 38.56 39.00 38.96 38.60 38.39 38.91 39.39 40.56 40.69 40.51 40.43
37.99 42.25 42.25 39.36 41.16 42.54 42.86 42.53 42.41 40.36 39.15 42.01 43.19 40.38 38.01 37.83 36.89 35.91 35.04 34.27 35.46 36.48 36.80 36.79 36.96 37.01 38.39 37.64 38.47 38.15 37.53 37.80 38.66 38.46 38.52 37.87 37.38 37.86 38.21 38.96 38.93 39.56 39.02 39.17
34.91 39.44 38.91 34.39 38.61 41.04 42.13 42.23 42.81 39.02 40.96 42.09 38.78 38.44 37.80 36.88 36.62 34.83 34.04 35.59 36.54 37.22 36.72 37.31 37.69 37.98 36.22 37.01 38.02 37.60 37.11 37.80 37.75 37.23 36.67 37.02 37.56 37.42 36.76 36.62 37.87 37.41 37.50 37.77
31.92 35.98 29.46 38.25 39.65 44.00 42.98 42.55 41.54 40.24 42.39 42.70 39.73 40.36 39.97 38.95 36.32 35.23 36.27 36.61 36.48 36.62 36.68 36.74 36.81 36.46 37.27 37.46 36.65 36.58 36.21 35.90 36.58 36.30 36.27 36.73 36.04 35.84 36.05 36.85 35.88 36.05 36.27 36.20
30.19 31.88 35.12 36.98 35.73 38.72 39.90 38.45 43.56 41.30 42.72 43.39 36.14 34.08 32.76 36.93 37.66 37.06 36.88 36.68 36.17 36.43 36.14 35.77 36.67 37.11 36.15 35.39 35.36 35.26 35.11 35.19 35.89 36.49 36.13 36.29 36.38 36.72 36.46 36.25 35.71 36.72 37.12 36.96
30.46 29.41 28.96 31.58 36.52 42.80 42.86 35.62 41.80 44.38 42.86 37.81 36.01 30.33 29.00 34.75 35.91 35.11 35.35 35.47 35.72 36.14 35.79 35.21 35.65 35.29 34.20 33.81 33.63 33.52 34.35 35.11 35.41 35.46 35.63 36.24 36.40 36.38 36.46 36.40 36.35 36.73 36.33 36.46
30.07 29.44 31.33 36.48 36.18 40.32 33.08 33.51 39.50 45.31 44.99 39.99 36.98 38.50 34.04 34.92 34.42 35.20 35.18 35.42 36.13 35.52 34.15 33.46 33.73 33.63 32.89 32.77 32.18 34.02 34.97 35.45 35.30 34.97 34.45 35.44 36.00 36.15 36.14 35.50 35.74 35.62 35.23 35.77
29.88 27.99 28.72 38.04 34.84 33.40 35.47 32.89 35.47 38.85 40.80 38.30 35.15 34.41 33.75 34.16 34.09 34.57 34.53 34.63 34.46 32.90 31.50 31.54 32.27 32.26 31.19 30.38 32.68 34.07 33.88 34.15 33.67 33.53 33.69 33.87 33.45 34.25 34.61 34.60 34.26 33.86 33.71 33.85
32.68 32.47 36.00 35.19 33.07 33.84 33.62 33.40 33.41 35.39 35.31 35.65 33.94 33.16 33.34 32.78 33.50 33.72 33.67 33.42 32.82 31.75 31.00 31.27 30.95 30.82 29.76 30.18 32.66 31.93 30.43 31.25 31.93 32.40 32.57 32.97 32.11 32.04 32.11 32.53 31.69 31.23 32.45 32.16
33.44 36.38 35.80 33.59 33.57 33.77 34.43 33.80 35.78 36.44 35.71 35.66 33.11 33.25 32.55 32.47 32.09 31.85 31.79 30.97 31.08 30.19 28.67 28.67 30.11 30.65 30.46 31.50 31.18 30.02 27.85 25.79 28.50 26.92 31.47 31.84 31.95 32.41 31.97 31.72 31.41 32.07 31.76 31.46
31.87 32.98 33.57 34.13 34.36 34.55 35.44 36.74 36.63 36.47 35.54 34.14 33.30 31.76 31.34 30.60 30.58 30.45 29.76 29.37 29.31 28.59 27.97 28.14 29.09 29.12 29.20 29.37 29.63 28.36 28.05 26.66 25.43 22.45 21.08 28.25 29.95 31.06 31.17 31.88 32.54 31.54 32.11 32.11
31.44 35.84 34.50 33.65 34.29 35.94 35.09 34.97 35.43 34.33 33.44 33.95 33.19 31.36 31.39 30.26 30.21 29.47 28.54 28.61 28.36 28.13 27.64 27.90 28.14 27.73 28.23 29.35 28.88 27.54 27.16 25.49 22.66 21.43 17.44 22.21 24.76 27.30 31.42 32.32 32.46 33.23 33.46 32.82
35.62 38.49 35.89 35.39 36.09 37.45 36.00 35.54 35.73 35.04 34.58 32.42 32.54 31.83 31.23 29.38 29.05 29.69 28.44 27.67 27.53 27.62 27.74 27.67 27.66 27.79 27.84 28.93 28.43 27.22 25.85 26.62 23.42 23.34 19.23 18.42 22.10 27.20 27.12 30.47 32.61 33.20 33.22 33.32
37.26 35.32 32.27 34.34 33.41 37.04 36.43 36.11 36.84 35.13 34.94 33.78 32.60 32.31 30.88 29.35 28.49 26.46 25.47 26.83 27.11 27.73 27.46 26.85 26.07 25.04 27.50 27.50 27.27 25.26 23.70 24.02 21.45 19.07 14.84 17.10 16.80 24.86 22.64 25.30 26.36 29.08 32.80 32.31
35.88 36.02 35.16 36.18 36.31 35.34 35.33 34.27 32.83 32.28 32.40 31.93 32.41 30.83 30.11 28.42 26.86 25.76 23.65 24.34 24.77 23.03 21.16 20.98 20.28 21.24 20.80 20.76 20.66 17.88 21.17 17.51 16.77 14.26 14.91 16.16 17.83 19.96 20.65 22.30 24.49 26.64 30.25 30.87
35.24 34.81 34.61 34.30 34.17 33.67 33.18 32.83 31.44 31.26 31.79 31.20 30.81 30.55 30.68 29.81 28.56 27.00 24.22 22.90 21.96 20.95 20.05 18.18 18.26 21.60 18.39 18.09 20.76 20.57 20.02 18.24 18.77 20.13 17.89 16.75 16.40 17.53 20.29 21.23 23.32 24.98 27.55 28.89
30.93 30.24 32.19 32.65 32.65 32.58 32.56 32.83 32.06 31.65 31.07 30.90 30.85 31.13 30.32 29.12 28.14 24.78 22.54 22.40 20.70 19.23 18.60 17.10 19.37 19.63 20.19 21.53 23.58 24.41 21.77 20.80 20.53 20.47 19.51 19.27 18.03 17.52 19.06 22.62 24.48 25.64 27.49 28.20
36.04 35.22 34.88 33.81 32.26 31.84 31.40 31.40 31.32 30.94 30.96 31.64 30.14 27.53 25.75 26.08 26.61 23.75 22.55 20.70 13.99 14.11 16.92 20.36 20.28 21.30 21.22 24.85 25.17 25.08 23.11 22.60 21.57 19.46 20.06 17.51 17.59 18.04 18.43 20.37 24.46 24.66 26.29 26.80
35.24 33.87 33.45 33.13 33.00 32.16 30.99 30.62 30.81 30.90 29.57 28.43 25.71 25.76 26.23 25.80 24.43 23.69 19.19 17.21 16.93 19.18 23.61 23.76 24.34 24.16 25.47 25.59 24.70 25.41 23.57 21.74 20.03 20.18 19.61 16.84 15.42 16.59 16.09 17.46 20.50 22.89 24.69 25.90
32.51 33.67 33.26 32.13 31.74 31.50 30.14 30.43 29.86 29.13 28.62 24.68 19.50 19.14 19.75 17.96 13.60 11.65 13.18 18.33 23.62 24.75 26.88 27.07 26.06 25.49 25.96 26.30 26.38 25.47 23.05 20.35 19.48 18.87 14.42 15.20 11.46 11.75 14.11 15.80 17.87 19.59 22.41 24.80
31.02 31.63 30.70 29.94 28.72 28.14 27.78 28.10 27.55 25.56 19.27 20.80 21.85 18.70 16.43 12.24 11.34 12.42 13.74 21.44 26.27 26.49 26.83 25.66 27.44 27.08 27.02 25.41 21.45 22.76 21.15 18.69 17.50 15.98 15.54 13.15 11.20 13.09 13.55 13.68 14.12 17.19 20.25 23.02
30.66 28.63 27.09 27.63 27.84 27.52 26.30 26.89 26.70 25.74 25.10 23.62 19.29 15.93 17.11 17.95 13.78 14.26 16.59 25.11 28.17 25.95 27.33 25.85 26.59 22.04 24.15 23.73 23.25 20.78 21.53 19.63 18.11 18.15 15.47 14.43 12.50 11.25 11.91 11.87 12.72 16.97 22.42 23.13
27.51 27.47 25.91 26.21 27.46 28.52 28.27 22.33 21.10 24.58 26.86 26.22 24.30 24.47 26.99 27.34 27.95 26.46 21.23 25.10 25.75 23.03 24.48 25.30 22.39 22.37 21.50 20.72 21.79 22.50 22.62 21.50 19.87 18.96 18.06 15.43 14.19 13.50 11.20 12.35 13.02 16.18 16.96 19.07
27.85 26.77 26.12 26.18 25.96 23.52 23.92 24.17 27.39 26.53 24.08 20.16 20.00 20.02 21.43 16.54 19.98 22.67 23.28 20.57 19.09 17.07 16.14 19.11 16.80 19.21 18.41 18.14 20.76 19.99 19.40 19.36 19.65 17.37 15.90 12.42 11.18 9.04 9.86 10.87 11.84 14.40 13.52 15.79
26.82 27.02 26.57 23.70 23.06 22.35 23.48 23.45 20.42 18.78 19.21 21.15 18.76 21.87 23.30 20.57 15.98 16.88 15.35 14.49 12.37 13.21 12.50 9.80 8.97 7.89 4.55 5.26 6.71 8.12 11.07 12.33 12.30 10.42 11.56 9.76 9.30 8.53 9.38 10.31 11.69 13.36 13.28 14.84
27.03 25.25 25.07 25.89 24.60 23.43 23.32 22.21 19.46 16.99 17.32 11.09 10.23 8.14 7.55 11.81 15.39 14.87 12.46 9.41 10.54 11.53 8.69 4.38 1.02 1.21 1.80 4.45 5.32 7.23 9.52 12.13 11.13 10.80 11.11 11.74 9.90 10.10 9.90 10.71 10.81 13.71 13.83 13.46
25.92 23.50 24.15 22.23 21.66 21.92 20.75 19.01 16.68 13.64 13.21 11.36 10.34 5.40 8.91 6.29 5.10 6.96 5.70 1.72 1.89 2.57 3.64 4.67 3.51 5.59 7.35 6.90 8.05 9.92 11.02 11.51 9.24 11.72 10.77 10.59 9.76 9.31 9.26 9.79 12.16 13.99 11.21 9.93
MSLP
1001.37 1001.57 1001.49 1001.25 1001.30 1001.73 1001.59 1001.45 1002.19 1001.85 1003.35 1004.53 1005.30 1006.24 1006.79 1007.70 1009.43 1010.42 1011.27 1012.33 1013.21 1014.01 1014.83 1015.42 1015.83 1016.09 1016.32 1016.64 1017.00 1017.10 1017.42 1017.65 1017.84 1018.01 1018.07 1018.12 1018.15 1017.98 1017.72 1017.33 1017.00 1016.80 1016.38 1015.98
1001.74 1001.86 1001.56 1001.05 1000.52 1000.35 1000.37 1000.94 1001.02 1001.71 1002.11 1002.86 1004.31 1006.05 1007.42 1008.13 1009.37 1010.41 1011.34 1012.32 1013.29 1013.95 1014.51 1015.04 1015.48 1015.94 1016.44 1016.86 1017.01 1017.14 1017.56 1017.89 1018.04 1018.15 1018.26 1018.41 1018.31 1017.93 1017.49 1017.28 1017.01 1016.59 1016.16 1015.67
1002.02 1002.47 1002.29 1001.26 999.33 999.59 999.78 999.95 1000.01 1000.23 1001.28 1002.53 1004.36 1005.44 1006.20 1007.53 1008.70 1009.83 1010.99 1012.12 1013.10 1013.96 1014.52 1014.96 1015.44 1016.03 1016.67 1017.04 1017.27 1017.50 1017.75 1018.14 1018.33 1018.36 1018.42 1018.22 1017.94 1017.65 1017.46 1017.16 1016.65 1016.32 1016.08 1015.91
1002.97 1003.19 1002.50 999.14 998.95 998.53 998.58 999.25 999.52 999.84 1000.49 1001.71 1003.03 1004.42 1005.68 1006.89 1007.73 1009.42 1010.82 1011.94 1012.94 1013.75 1014.61 1015.22 1015.74 1016.29 1016.87 1017.32 1017.44 1017.53 1018.08 1018.54 1018.57 1018.39 1018.02 1017.63 1017.49 1017.36 1017.23 1016.91 1016.64 1016.49 1016.03 1015.78
1003.31 1002.70 1001.31 999.77 999.22 999.06 998.76 998.60 998.90 999.95 1000.70 1001.78 1003.52 1005.44 1007.03 1007.20 1008.26 1009.11 1010.34 1011.89 1012.90 1013.84 1014.70 1015.44 1016.02 1016.49 1016.91 1017.25 1017.73 1018.18 1018.67 1018.57 1018.29 1018.04 1017.87 1017.56 1017.19 1017.17 1016.99 1016.82 1016.67 1016.31 1015.76 1015.31
1003.47 1002.64 1001.12 999.37 998.69 998.82 999.23 998.66 998.86 999.60 1000.13 1001.63 1003.35 1005.48 1006.68 1007.45 1008.10 1009.41 1010.49 1011.64 1012.93 1014.11 1014.90 1015.35 1016.26 1016.69 1016.97 1017.72 1018.23 1018.62 1018.36 1018.19 1018.27 1018.16 1017.69 1017.51 1017.55 1017.36 1017.04 1016.61 1016.19 1015.74 1015.26 1014.98
1002.89 1002.36 1000.69 999.53 998.99 999.38 999.75 998.88 998.37 998.89 999.53 1001.02 1002.58 1002.86 1005.36 1007.31 1008.61 1009.65 1010.64 1011.86 1013.18 1014.25 1014.71 1015.82 1016.58 1016.90 1017.70 1018.21 1018.61 1018.43 1017.95 1017.76 1017.69 1017.58 1017.67 1017.66 1017.63 1017.28 1016.76 1016.36 1015.98 1015.69 1015.28 1014.81
1003.06 1002.29 1000.78 999.23 999.81 999.75 999.21 999.08 999.27 999.42 999.85 1000.86 1002.74 1003.95 1005.44 1007.30 1008.73 1009.75 1010.82 1012.25 1012.81 1014.69 1015.63 1016.49 1016.97 1017.46 1018.16 1018.47 1018.34 1018.02 1017.66 1017.53 1017.59 1017.73 1017.86 1017.76 1017.64 1017.19 1016.77 1016.34 1015.75 1015.34 1014.75 1014.40
1001.66 1000.52 999.66 999.55 999.46 999.34 999.41 999.76 1000.41 1000.63 1001.35 1002.05 1003.21 1004.91 1006.30 1007.90 1009.60 1010.51 1011.31 1012.77 1014.10 1014.78 1015.87 1016.79 1017.35 1017.70 1018.08 1018.22 1018.00 1017.72 1017.66 1017.96 1018.15 1018.08 1018.00 1017.77 1017.49 1017.05 1016.61 1016.34 1015.87 1015.40 1014.69 1014.15
1001.08 999.79 999.70 999.88 1000.04 999.99 1000.08 1000.30 1000.74 1001.26 1002.03 1003.07 1004.25 1005.86 1007.23 1008.54 1009.93 1011.15 1012.14 1013.24 1014.12 1014.99 1016.22 1017.07 1017.28 1017.61 1017.92 1017.81 1017.44 1017.64 1018.13 1018.38 1018.48 1018.51 1018.17 1017.56 1017.18 1017.08 1016.56 1016.21 1015.60 1015.00 1014.38 1013.88
1000.23 1000.04 1000.16 1000.19 1000.01 1000.29 1000.79 1001.16 1001.67 1002.53 1002.80 1003.88 1005.18 1007.10 1008.09 1009.45 1010.54 1011.58 1012.50 1013.36 1014.29 1015.21 1016.10 1016.80 1017.31 1017.63 1017.46 1017.38 1017.71 1018.21 1018.54 1018.80 1018.80 1018.60 1018.27 1017.77 1017.25 1016.87 1016.52 1015.99 1015.50 1014.76 1014.13 1013.73
998.07 998.33 998.56 999.15 999.90 1000.48 1000.92 1001.64 1002.02 1002.61 1004.12 1005.23 1005.94 1007.41 1008.83 1010.01 1010.97 1012.04 1013.07 1013.94 1014.73 1015.50 1016.27 1016.81 1017.02 1017.08 1017.19 1017.42 1017.81 1018.38 1018.77 1018.97 1018.89 1018.57 1018.34 1018.01 1017.30 1016.67 1016.28 1015.73 1014.93 1014.20 1013.62 1013.27
997.14 997.49 998.23 998.89 999.75 1000.26 1000.74 1001.83 1002.51 1003.05 1003.79 1005.26 1006.74 1007.74 1009.04 1010.34 1011.52 1012.51 1013.45 1014.21 1014.86 1015.34 1015.80 1016.30 1016.67 1017.10 1017.21 1017.43 1017.85 1018.34 1018.66 1018.62 1018.56 1018.52 1018.43 1017.97 1017.42 1016.93 1016.13 1015.08 1014.27 1013.38 1013.00 1012.70
997.22 997.53 999.17 999.63 1000.33 1000.94 1001.33 1002.47 1003.23 1004.08 1005.01 1005.87 1007.00 1008.29 1009.40 1010.66 1011.98 1012.96 1013.72 1014.03 1014.50 1015.02 1015.53 1015.92 1016.41 1016.90 1017.05 1017.52 1017.94 1018.28 1018.48 1018.36 1018.33 1018.29 1018.14 1017.89 1017.39 1016.74 1016.10 1015.33 1014.01 1013.00 1012.48 1012.22
997.25 997.09 997.70 998.99 1000.38 1001.30 1002.09 1002.84 1003.99 1004.97 1005.92 1006.90 1007.62 1008.60 1009.75 1010.97 1012.10 1012.83 1013.59 1013.91 1014.42 1015.11 1015.55 1015.88 1016.35 1016.60 1016.77 1017.32 1017.74 1018.00 1017.90 1017.80 1017.81 1017.85 1017.76 1017.76 1017.34 1016.63 1015.89 1015.04 1014.29 1013.33 1012.45 1011.85
997.24 997.82 998.73 999.70 1000.84 1001.73 1002.58 1003.59 1004.45 1005.74 1006.62 1007.30 1008.14 1009.05 1009.87 1010.77 1011.84 1012.67 1013.48 1014.17 1014.77 1015.32 1015.49 1015.89 1016.06 1015.78 1016.20 1016.59 1016.87 1017.10 1017.30 1017.32 1017.24 1017.22 1017.09 1017.00 1016.76 1016.35 1015.59 1014.95 1014.30 1013.45 1012.59 1011.82
997.53 998.84 999.72 1000.48 1001.09 1001.88 1002.66 1003.47 1004.47 1005.77 1006.83 1007.61 1008.51 1009.32 1010.15 1011.00 1012.04 1012.99 1013.58 1013.94 1014.20 1014.41 1014.59 1015.14 1015.04 1015.02 1015.29 1015.70 1016.02 1016.05 1016.23 1016.36 1016.40 1016.58 1016.51 1016.41 1016.31 1015.99 1015.35 1014.94 1014.30 1013.51 1012.55 1011.77
997.01 997.90 998.76 999.86 1001.21 1002.11 1003.17 1004.03 1005.05 1006.11 1007.01 1007.88 1008.78 1009.68 1010.78 1011.37 1012.05 1012.85 1013.14 1013.58 1014.26 1014.41 1014.41 1014.24 1014.22 1014.28 1014.61 1014.77 1014.95 1015.19 1015.35 1015.56 1015.69 1015.70 1015.72 1015.64 1015.69 1015.49 1015.05 1014.78 1014.21 1013.43 1012.39 1011.60
998.02 998.95 1000.02 1000.77 1001.31 1002.28 1003.51 1004.63 1005.47 1006.38 1007.40 1008.26 1009.37 1010.21 1010.68 1011.31 1011.80 1012.31 1012.62 1013.56 1013.91 1014.06 1013.28 1013.16 1013.43 1013.79 1013.79 1013.62 1013.75 1013.97 1014.35 1014.77 1014.84 1014.98 1015.03 1015.07 1015.12 1014.96 1014.76 1014.50 1014.01 1013.28 1012.45 1011.54
999.33 999.93 1000.65 1001.50 1002.18 1002.95 1004.18 1005.13 1005.97 1007.14 1007.84 1008.66 1009.50 1010.32 1011.07 1011.42 1012.05 1012.68 1013.15 1013.28 1012.89 1012.74 1012.68 1012.55 1012.63 1012.75 1012.71 1012.95 1012.94 1012.84 1013.38 1013.79 1014.08 1014.19 1014.40 1014.58 1014.63 1014.57 1014.42 1014.15 1013.66 1013.02 1012.34 1011.54
1000.15 1000.81 1001.70 1002.47 1003.54 1004.38 1005.08 1005.97 1006.81 1007.85 1008.48 1009.06 1009.64 1010.42 1011.20 1012.11 1012.46 1012.84 1013.05 1012.88 1012.22 1011.93 1012.01 1012.09 1012.35 1012.22 1012.42 1012.16 1012.38 1012.45 1012.74 1013.05 1013.40 1013.66 1013.88 1014.03 1014.10 1014.11 1014.05 1013.73 1013.24 1012.69 1012.06 1011.37
1001.21 1002.00 1002.99 1003.78 1004.72 1005.90 1006.51 1006.83 1007.36 1008.30 1009.08 1009.64 1010.20 1010.72 1011.29 1011.90 1012.38 1012.66 1012.17 1012.29 1012.18 1012.26 1012.04 1012.09 1012.04 1012.22 1012.15 1011.98 1012.11 1012.35 1012.58 1012.88 1013.14 1013.31 1013.42 1013.55 1013.69 1013.75 1013.59 1013.24 1012.81 1012.30 1011.79 1011.13
1002.35 1003.20 1004.14 1004.95 1005.58 1006.52 1007.36 1007.84 1008.30 1008.81 1009.59 1010.27 1010.79 1011.16 1011.61 1011.85 1012.02 1012.28 1012.50 1012.49 1012.34 1012.37 1012.22 1012.31 1012.40 1012.38 1012.33 1012.33 1012.35 1012.38 1012.59 1012.72 1012.77 1012.81 1012.85 1012.93 1013.03 1013.06 1012.92 1012.71 1012.21 1011.80 1011.33 1010.75
1003.61 1004.36 1005.15 1005.88 1006.50 1007.33 1008.17 1008.90 1009.22 1009.57 1010.11 1010.72 1011.17 1011.30 1011.68 1012.21 1012.39 1012.32 1012.20 1012.33 1012.35 1012.38 1012.44 1012.33 1012.28 1012.18 1012.13 1012.15 1012.14 1012.13 1012.29 1012.30 1012.28 1012.26 1012.22 1012.20 1012.38 1012.34 1012.20 1011.98 1011.59 1011.05 1010.68 1010.24
1004.52 1005.27 1005.95 1006.54 1007.16 1007.99 1008.59 1009.23 1009.68 1010.28 1010.79 1011.24 1011.60 1011.78 1011.86 1011.74 1012.22 1012.48 1012.48 1012.49 1012.55 1012.67 1012.65 1012.25 1012.25 1012.23 1012.25 1012.29 1012.26 1012.28 1012.07 1011.86 1011.72 1011.70 1011.66 1011.71 1011.65 1011.57 1011.26 1010.98 1010.68 1010.35 1010.00 1009.60
1005.20 1005.91 1006.52 1006.98 1007.57 1008.32 1009.07 1009.73 1010.37 1010.86 1011.23 1011.74 1012.13 1011.98 1012.18 1012.25 1012.16 1012.34 1012.48 1012.60 1012.55 1012.40 1012.44 1012.21 1012.21 1012.14 1012.10 1012.02 1011.91 1011.77 1011.56 1011.30 1011.09 1010.92 1010.79 1010.74 1010.68 1010.53 1010.35 1010.13 1009.90 1009.61 1009.29 1008.91
1006.06 1006.64 1007.38 1008.02 1008.44 1008.90 1009.48 1010.01 1010.53 1010.99 1011.41 1011.93 1012.27 1012.11 1012.31 1012.58 1012.74 1012.87 1012.93 1012.93 1012.89 1012.48 1012.28 1012.04 1011.87 1011.72 1011.52 1011.34 1011.19 1010.98 1010.75 1010.51 1010.23 1010.03 1009.80 1009.66 1009.54 1009.50 1009.41 1009.23 1008.98 1008.75 1008.49 1008.28
Wind_Speed
11 16 6 14 24 22 27 25 23 19 15 12 16 19 22 20 15 16 15 14 13 12 10 9 8 7 7 7 6 5 5 5 6 6 6 6 6 6 6 6 5 5 8 6
11 15 13 14 19 25 25 22 26 10 12 10 13 9 13 19 18 16 14 12 12 12 11 8 8 8 7 6 5 5 6 6 5 5 5 5 6 6 6 7 7 8 8 8
12 4 1 14 21 22 19 15 19 23 9 8 10 17 21 19 18 17 15 14 13 11 9 9 9 8 6 6 5 6 6 5 4 4 4 4 7 8 9 9 7 8 8 6
3 9 10 7 4 20 26 15 9 5 13 14 18 15 15 16 19 18 17 14 12 11 10 9 7 7 7 5 5 6 6 3 3 4 4 6 6 7 8 8 8 8 7 7
6 8 6 6 5 9 16 14 14 9 10 13 12 9 6 11 14 17 18 13 12 11 10 8 8 7 6 6 6 5 1 2 4 5 6 7 8 9 8 9 11 9 9 9
4 6 13 1 3 5 5 18 10 14 16 17 17 10 8 12 19 18 16 15 14 12 10 10 6 6 7 5 4 3 3 3 5 7 8 9 9 9 7 8 9 7 9 9
3 4 7 6 3 3 13 6 9 19 15 16 17 9 14 17 17 18 16 16 13 10 10 8 5 6 6 5 3 3 1 2 4 7 9 8 8 8 7 8 9 9 9 9
3 1 11 8 3 12 7 2 1 4 10 18 12 21 24 20 19 19 18 15 13 10 9 6 6 6 5 4 3 1 3 5 6 6 6 7 10 8 8 8 8 8 8 8
9 8 2 2 1 0 1 5 4 9 9 15 21 21 20 19 15 14 16 13 10 11 10 6 5 5 5 2 3 5 6 5 5 5 5 5 6 8 7 7 9 9 7 7
2 5 5 3 3 2 4 6 8 13 16 18 21 19 18 16 15 13 12 11 9 10 8 6 5 5 4 4 5 6 3 3 4 4 6 5 3 4 5 6 7 7 7 8
4 1 5 2 4 9 9 12 16 14 18 20 20 15 15 13 12 11 10 7 8 8 7 7 6 5 4 5 5 2 3 3 4 3 3 6 5 5 6 7 7 8 8 8
8 10 6 8 11 16 19 16 18 21 15 12 15 15 13 11 10 10 10 7 8 7 8 7 6 5 5 4 2 0 3 3 3 3 3 4 5 7 8 13 15 16 16 13
5 7 4 11 14 14 19 16 14 16 16 19 11 14 12 12 8 10 9 9 9 9 8 7 6 5 4 3 3 3 4 4 2 3 3 3 4 6 8 9 15 12 11 14
9 12 9 15 11 14 17 15 14 13 12 12 12 11 11 11 7 9 10 9 8 8 7 6 5 4 4 4 4 5 4 6 3 3 3 4 3 6 5 7 10 9 9 10
11 4 11 14 15 15 16 17 16 14 12 11 11 12 11 12 11 8 6 6 6 5 4 4 4 7 5 5 5 5 4 3 4 3 3 4 4 4 5 6 7 9 9 9
9 13 16 19 17 16 16 15 15 12 12 11 11 11 12 11 9 7 7 7 8 7 8 7 7 8 6 6 6 4 5 7 4 3 3 3 3 4 5 5 7 8 8 10
17 11 14 15 18 18 15 13 13 13 10 11 11 10 9 8 7 6 7 8 7 7 8 8 12 6 7 7 7 6 4 4 6 3 3 4 4 4 4 6 9 10 10 8
14 16 18 20 16 15 12 10 10 10 9 9 8 8 8 9 11 10 9 7 1 4 6 10 8 6 6 7 8 6 5 5 4 4 3 3 3 3 3 4 8 10 11 10
14 14 13 14 15 13 11 10 10 9 8 8 8 10 11 10 8 8 6 7 7 7 11 7 7 8 9 9 8 6 7 6 5 3 3 3 3 3 3 4 6 8 9 11
10 11 12 10 9 10 9 6 8 7 5 7 6 6 6 5 1 3 3 6 7 6 2 5 5 6 7 9 9 6 6 6 5 4 3 2 3 3 4 6 6 6 8 10
11 12 12 11 9 8 7 7 9 8 4 6 7 5 5 3 3 5 3 3 5 6 6 5 6 5 5 5 4 5 6 5 4 4 3 3 3 4 4 5 5 5 7 9
11 10 11 11 12 9 6 7 9 8 7 7 6 6 5 2 2 1 4 2 2 5 2 1 1 4 4 4 2 2 2 2 2 3 3 3 3 4 5 5 5 5 8 9
9 10 10 10 11 11 8 6 6 7 8 7 6 5 4 2 1 2 2 2 2 3 2 1 2 3 3 1 1 2 3 3 4 4 4 4 4 5 5 5 5 5 5 6
11 9 9 8 11 8 9 4 6 7 8 6 6 5 4 3 1 1 2 2 1 1 2 3 4 5 4 2 3 4 4 4 5 4 4 5 4 4 4 5 5 5 5 6
10 10 8 7 6 4 8 7 7 5 6 5 5 4 4 2 4 3 2 2 3 2 3 4 4 5 2 3 3 3 4 4 5 4 5 5 5 5 5 5 5 6 5 5
8 5 4 5 5 5 5 5 5 3 4 3 0 1 1 1 1 1 1 3 3 3 3 3 3 3 3 3 3 5 5 5 5 5 6 5 5 5 5 5 5 7 6 5
6 5 5 4 2 4 4 5 5 3 3 4 3 3 3 2 3 3 3 3 3 4 4 4 4 5 4 5 5 5 6 6 7 6 5 5 5 5 5 6 6 5 5 5
Wind_Direction
214 232 226 214 219 220 222 224 213 232 223 190 183 177 180 168 160 160 162 155 151 144 143 138 136 120 99 89 86 93 78 63 51 31 12 357 340 316 297 303 311 297 307 306
233 214 219 233 225 222 226 226 236 216 228 171 191 127 154 172 170 167 158 147 143 142 137 132 116 103 98 106 97 82 72 59 34 18 354 325 308 307 324 325 319 319 323 314
230 188 139 256 218 213 222 223 221 226 198 149 143 171 179 170 171 164 153 146 141 132 118 111 115 125 122 102 89 83 65 46 21 348 315 318 343 333 328 322 322 326 313 305
139 117 214 261 264 202 210 203 192 150 167 165 172 179 171 177 158 150 146 140 131 125 123 125 126 110 106 100 87 76 54 4 325 313 321 334 330 327 327 322 326 313 297 298
170 205 313 238 211 160 183 216 200 160 140 147 120 92 23 147 155 142 137 138 135 134 131 121 112 118 108 87 76 76 42 330 332 320 333 341 342 335 329 324 322 309 308 305
168 177 211 160 208 159 103 248 186 178 181 146 141 172 194 161 141 135 133 133 134 131 120 109 101 112 101 115 121 184 197 8 353 345 344 343 328 318 308 307 301 302 301 301
157 221 285 235 203 167 183 235 185 192 188 161 189 199 139 144 137 135 136 134 129 129 108 117 130 117 127 136 183 229 115 54 10 1 348 329 318 309 304 307 306 305 302 302
141 171 256 177 113 172 213 33 187 132 162 167 126 132 141 142 142 143 135 130 111 124 128 119 117 116 143 156 221 99 43 30 13 356 333 322 318 314 313 306 302 302 303 306
188 205 241 221 320 16 118 131 173 124 129 140 135 140 140 137 136 132 128 130 138 127 120 125 135 139 133 166 75 51 39 12 352 321 296 299 307 315 318 319 319 316 311 306
135 209 205 164 68 127 174 130 121 123 131 136 135 138 135 133 134 135 135 136 128 127 134 143 136 118 135 106 67 61 26 320 294 313 311 303 297 288 294 297 296 299 306 303
256 300 80 166 171 151 119 116 114 116 128 131 128 129 128 133 135 135 132 122 131 141 146 151 149 143 112 84 69 48 337 304 287 283 296 310 280 285 286 278 277 292 298 298
209 192 170 175 159 155 138 141 135 127 121 126 130 132 136 134 134 135 138 140 143 147 147 158 152 137 131 124 109 79 284 280 275 281 289 286 290 306 293 286 284 286 289 290
192 174 138 140 148 155 139 143 138 133 137 139 140 137 140 139 145 144 145 151 160 164 159 155 149 154 162 158 170 232 252 276 271 292 294 294 317 316 315 314 308 294 290 303
130 102 87 145 155 152 138 132 127 123 131 136 134 131 134 136 125 150 168 171 157 153 153 156 156 193 186 185 208 230 244 262 257 266 266 288 268 297 285 305 321 321 314 309
169 118 152 138 134 138 137 132 133 138 139 140 144 142 144 147 158 177 163 149 134 141 150 148 178 236 203 203 211 227 234 243 231 243 258 260 270 278 278 294 302 305 309 313
121 120 129 139 142 139 139 140 140 148 150 145 147 153 159 160 163 159 154 147 144 192 199 194 210 229 200 196 216 226 235 241 238 238 270 281 277 282 296 300 304 302 303 319
117 124 133 141 147 152 157 151 149 152 148 153 159 155 153 151 144 157 183 191 201 197 195 188 223 202 205 204 212 228 219 226 216 232 236 247 255 267 283 306 316 310 308 305
154 154 156 151 151 146 142 139 141 142 159 162 146 143 148 156 182 194 201 189 196 288 230 225 222 216 208 219 215 221 214 222 210 221 234 239 252 246 271 286 308 310 309 311
131 130 138 146 146 140 139 142 150 154 141 148 142 173 181 188 189 200 155 163 199 221 250 222 220 218 236 238 217 216 214 212 213 223 222 241 256 255 268 277 288 301 307 312
106 121 123 112 102 127 130 131 126 128 138 128 106 119 168 215 186 90 114 201 215 220 290 255 229 230 238 244 231 214 208 202 208 217 211 221 230 258 271 272 278 295 308 308
112 110 106 105 93 83 105 129 131 130 128 134 145 156 167 163 161 158 166 195 248 232 242 253 251 249 249 243 211 212 205 191 194 212 221 230 246 258 259 269 274 282 302 305
111 106 107 109 108 98 80 97 105 110 106 101 88 98 95 58 82 222 232 255 347 7 348 299 322 324 302 259 228 173 150 177 211 225 224 230 237 252 259 260 263 272 306 306
105 119 116 120 123 121 112 84 93 113 122 127 126 129 126 147 188 199 185 85 88 60 69 67 12 11 21 67 190 200 223 234 236 233 232 231 236 240 244 257 256 264 272 293
106 100 105 107 121 121 120 133 121 123 124 122 119 137 135 109 81 66 131 189 247 320 261 257 275 280 272 236 228 223 225 234 240 235 234 232 236 241 246 251 252 257 261 279
111 113 114 119 109 104 119 127 107 102 111 118 134 145 145 146 146 227 188 258 285 301 291 302 315 318 318 293 273 259 254 250 243 230 240 236 241 245 248 249 251 259 257 258
124 124 129 131 133 136 139 141 145 160 137 130 236 218 259 255 210 235 266 261 268 282 264 282 279 278 270 264 260 263 258 257 246 243 231 237 240 241 242 250 254 263 259 255
90 99 107 83 73 140 150 150 140 177 171 151 182 231 213 266 266 254 249 282 282 276 267 268 254 248 243 246 252 257 260 258 248 247 240 237 232 237 241 240 241 247 250 257